Total_Precipitation_Accumulation
0.05 0.07 0.09 0.11 0.11 0.18 0.22 0.21 0.29 0.35 0.39 0.44 0.58 0.84 1.06 1.15 1.29 1.41 1.64 1.74 2.04 2.20 2.45 2.82 3.27 3.69 4.25 4.46 4.56 4.57 4.75 5.05 5.24 5.38 5.44 5.87 5.93 5.73 5.93 6.18 6.06 6.21 6.29 6.03
0.06 0.06 0.05 0.06 0.07 0.19 0.24 0.22 0.31 0.43 0.49 0.56 0.68 0.91 1.14 1.27 1.28 1.58 1.88 1.99 2.48 2.66 2.60 2.83 3.43 3.81 4.21 4.51 4.68 4.94 5.06 5.14 5.28 5.74 6.24 6.67 7.06 7.00 6.89 7.06 7.13 6.87 6.77 6.68
0.06 0.07 0.07 0.08 0.10 0.16 0.22 0.27 0.37 0.52 0.53 0.65 0.84 1.35 1.48 1.42 1.48 1.74 2.04 2.25 2.64 2.78 2.94 2.94 3.12 3.48 3.90 4.28 4.55 4.79 5.10 5.50 6.05 6.71 7.21 7.52 7.95 8.11 7.84 7.54 7.40 7.14 6.94 6.77
0.07 0.06 0.09 0.09 0.12 0.12 0.18 0.21 0.30 0.38 0.50 0.76 0.88 1.69 1.86 1.73 1.81 1.93 2.16 2.29 2.58 2.49 2.73 2.97 3.03 3.24 3.57 3.86 4.23 4.68 5.10 5.73 6.65 7.36 7.82 8.27 8.49 8.55 8.36 8.02 7.57 7.18 6.77 6.38
0.10 0.08 0.09 0.09 0.11 0.10 0.12 0.14 0.22 0.27 0.39 0.64 0.77 1.46 1.93 1.86 2.06 2.14 2.35 2.44 2.46 2.51 2.53 2.68 2.75 2.93 3.29 3.64 4.01 4.46 4.95 5.69 6.45 7.09 7.72 8.29 8.50 8.50 8.22 7.75 7.16 6.65 6.19 5.77
0.09 0.08 0.07 0.07 0.08 0.09 0.11 0.17 0.27 0.34 0.57 0.92 0.77 1.24 2.03 2.21 2.33 2.43 2.39 2.50 2.74 2.68 2.52 2.52 2.56 2.70 2.94 3.31 3.69 4.19 4.65 5.19 5.82 6.28 6.89 7.37 7.61 7.56 7.15 6.57 5.94 5.53 5.27 5.02
0.14 0.11 0.08 0.09 0.12 0.11 0.13 0.29 0.70 0.92 1.04 1.07 0.78 1.31 2.21 2.39 2.32 2.42 2.57 2.73 2.86 2.87 2.70 2.63 2.65 2.65 2.79 3.09 3.52 3.89 4.09 4.53 4.80 5.12 5.62 6.00 6.08 5.99 5.67 5.37 5.13 4.72 4.24 3.87
0.30 0.26 0.14 0.11 0.13 0.15 0.16 0.29 0.77 1.18 1.12 1.08 1.15 1.90 2.58 2.51 2.30 2.24 2.37 2.47 2.55 2.49 2.45 2.45 2.48 2.61 2.75 2.82 3.09 3.37 3.37 3.54 3.79 3.98 4.21 4.36 4.41 4.44 4.43 4.32 3.98 3.61 3.17 2.83
0.43 0.35 0.16 0.12 0.11 0.13 0.18 0.26 0.36 0.65 0.77 1.18 1.74 2.35 2.84 2.60 2.53 2.38 2.16 2.00 2.19 2.29 2.30 2.35 2.42 2.57 2.66 2.63 2.61 2.73 2.80 2.85 2.95 3.02 3.17 3.28 3.34 3.50 3.50 3.41 3.21 2.95 2.75 2.47
0.36 0.35 0.19 0.12 0.10 0.13 0.17 0.24 0.38 0.70 1.25 1.61 1.97 2.62 3.24 3.20 3.12 3.01 2.63 2.22 2.23 2.31 2.40 2.41 2.36 2.35 2.46 2.36 2.33 2.45 2.55 2.54 2.54 2.48 2.47 2.41 2.60 2.74 2.81 2.73 2.53 2.49 2.48 2.39
0.29 0.33 0.27 0.18 0.21 0.24 0.23 0.30 0.43 0.74 1.02 1.62 2.34 3.05 2.97 3.26 3.38 3.23 2.83 2.35 2.30 2.33 2.43 2.43 2.46 2.32 2.27 2.28 2.29 2.21 2.24 2.25 2.19 2.16 2.21 2.13 2.11 2.14 2.15 2.03 1.94 1.99 2.04 2.08
0.30 0.36 0.41 0.28 0.24 0.24 0.28 0.34 0.46 0.97 1.11 1.26 2.07 3.05 2.86 3.19 3.36 3.20 3.04 2.68 2.45 2.52 2.51 2.41 2.46 2.44 2.28 2.12 2.11 2.05 2.04 2.05 2.04 2.03 2.04 1.90 1.82 1.82 1.84 1.82 1.74 1.73 1.79 1.78
0.35 0.56 0.83 0.91 0.73 0.43 0.35 0.35 0.43 0.59 0.89 1.29 2.01 3.00 2.97 3.05 3.01 2.87 2.86 2.79 2.76 2.95 2.80 2.58 2.43 2.18 2.10 1.97 1.82 1.78 1.88 1.95 1.96 1.98 1.98 1.92 1.78 1.68 1.64 1.64 1.57 1.50 1.56 1.59
0.36 0.61 1.05 1.59 1.30 0.71 0.51 0.45 0.50 0.65 1.07 1.43 1.79 2.45 2.76 2.94 3.00 3.00 3.03 3.04 2.94 2.73 2.45 2.23 2.07 1.90 1.88 1.87 1.75 1.69 1.72 1.79 1.81 1.80 1.85 1.82 1.76 1.66 1.58 1.55 1.55 1.51 1.49 1.42
0.44 0.73 0.79 0.79 0.68 0.57 0.55 0.55 0.60 0.68 0.84 1.33 1.67 2.20 2.68 2.90 3.09 2.92 2.94 2.86 2.60 2.44 2.33 2.17 2.09 2.03 1.86 1.78 1.74 1.68 1.64 1.62 1.59 1.63 1.64 1.61 1.57 1.55 1.48 1.45 1.48 1.48 1.47 1.38
0.53 0.81 0.75 0.71 0.60 0.62 0.71 0.72 0.78 0.79 0.90 1.19 1.61 2.26 2.53 2.79 2.95 2.89 2.87 2.73 2.61 2.54 2.43 2.33 2.26 2.14 1.96 1.72 1.69 1.71 1.71 1.70 1.65 1.60 1.51 1.46 1.46 1.41 1.33 1.29 1.28 1.29 1.30 1.35
0.62 0.89 1.03 0.99 0.68 0.94 1.47 1.16 1.06 1.18 1.13 1.41 1.92 2.19 2.11 2.23 2.41 2.56 2.65 2.64 2.55 2.53 2.49 2.44 2.37 2.29 2.14 1.92 1.83 1.78 1.73 1.67 1.63 1.62 1.50 1.39 1.42 1.41 1.32 1.22 1.28 1.26 1.25 1.33
0.64 0.97 1.09 1.12 1.32 2.12 2.02 1.31 1.14 1.29 1.42 1.36 1.54 1.66 1.74 1.84 2.02 2.21 2.35 2.54 2.63 2.57 2.46 2.40 2.34 2.27 2.20 2.02 1.85 1.70 1.62 1.52 1.60 1.64 1.55 1.42 1.41 1.40 1.36 1.35 1.38 1.42 1.38 1.38
0.50 0.93 1.30 1.51 1.94 2.26 2.03 1.41 1.27 1.64 2.01 1.51 1.43 1.48 1.49 1.57 1.82 2.26 2.35 2.51 2.67 2.52 2.46 2.41 2.26 2.16 2.07 1.85 1.66 1.56 1.59 1.52 1.53 1.57 1.54 1.44 1.35 1.37 1.36 1.39 1.44 1.45 1.46 1.47
0.51 0.84 1.43 1.80 2.38 2.70 2.41 1.30 0.96 1.55 2.61 1.69 1.44 1.60 1.68 1.80 2.29 2.37 2.12 2.15 2.35 2.43 2.51 2.46 2.21 2.04 1.92 1.65 1.45 1.42 1.44 1.41 1.43 1.36 1.30 1.25 1.26 1.27 1.27 1.32 1.37 1.48 1.52 1.51
1.07 1.26 1.57 1.97 2.50 2.51 1.60 0.99 1.12 2.44 2.81 1.91 1.69 1.78 1.91 2.10 2.26 1.99 1.76 1.80 1.98 2.20 2.29 2.20 2.08 1.98 1.75 1.52 1.42 1.44 1.37 1.26 1.19 1.19 1.21 1.24 1.26 1.30 1.30 1.37 1.37 1.42 1.42 1.50
1.42 1.79 1.97 2.19 2.66 2.70 1.35 1.13 1.83 2.24 1.72 1.56 1.53 1.55 1.68 1.63 1.51 1.52 1.64 1.74 1.87 2.02 2.05 1.96 1.92 1.85 1.71 1.54 1.52 1.54 1.40 1.20 1.12 1.17 1.23 1.27 1.31 1.16 1.14 1.39 1.39 1.34 1.43 1.46
1.30 1.61 1.94 2.29 2.60 2.20 1.48 1.55 1.66 1.58 1.64 1.51 1.47 1.42 1.52 1.50 1.45 1.51 1.58 1.67 1.75 1.83 1.83 1.71 1.63 1.68 1.70 1.65 1.64 1.66 1.49 1.27 1.21 1.30 1.31 1.28 1.28 1.31 1.36 1.38 1.33 1.30 1.34 1.29
1.25 1.06 1.41 1.86 1.83 1.59 1.41 1.38 1.39 1.36 1.41 1.31 1.27 1.31 1.46 1.56 1.55 1.65 1.58 1.54 1.59 1.63 1.60 1.56 1.51 1.56 1.62 1.55 1.47 1.56 1.50 1.37 1.36 1.36 1.29 1.24 1.31 1.43 1.44 1.40 1.26 1.21 1.17 1.14
1.29 1.39 1.76 2.06 1.78 1.63 1.48 1.24 1.11 1.07 1.03 1.06 1.10 1.16 1.33 1.47 1.52 1.56 1.54 1.45 1.35 1.30 1.32 1.41 1.51 1.48 1.41 1.37 1.26 1.25 1.32 1.38 1.48 1.44 1.33 1.24 1.17 1.24 1.32 1.18 1.04 1.03 1.01 1.05
1.25 1.68 2.29 2.19 1.84 2.00 1.75 1.28 1.05 1.07 1.14 1.17 1.13 1.06 1.08 1.18 1.30 1.37 1.43 1.33 1.19 1.11 1.16 1.26 1.31 1.29 1.27 1.26 1.23 1.19 1.16 1.22 1.43 1.39 1.27 1.14 1.00 0.99 0.98 0.96 0.96 0.99 0.96 0.97